www.pogodaiklimat.ru

Погода и климат >> Архив погоды >> Норвегия >> Маяк Ytteroyane


ПОГОДА на Маяке Ytteroyane

  • Прогноз погоды на Маяке Ytteroyane
  • Монитор погоды на Маяке Ytteroyane

АРХИВ ПОГОДЫ на Маяке Ytteroyane

Время (UTC), дата Ветер
(напр.,м/с)
 
Видим.   Явления Облачность Т
(С)
Тd
(С)
f
(%)
Тe
(С)
Тes
(С)
Комфортность P
(гПа)
Po
(гПа)
Тmin
(С)
Tmax
(С)
R
(мм)
R24
(мм)
S
(см)
19 13.08 СЗ 5
{7}
н/о н/о +13.1 +7.3 68 +11 +11 1008.6 1005.6
20 13.08 СЗ 4
{7}
н/о н/о +13.1 +6.5 64 +12 +12 1008.6 1005.6
21 13.08 СЗ 3
{5}
н/о н/о +13.1 +6.2 63 +12 +12 1008.6 1005.6
22 13.08 З 2
{5}
н/о н/о +13.1 +6.9 66 +13 +13 1008.5 1005.5
23 13.08 З 2
{4}
н/о н/о +12.9 +6.0 63 +12 +12 1008.4 1005.4
00 14.08 ЮЗ 3
{7}
н/о н/о +13.1 +7.6 69 +12 +12 1008.3 1005.3
01 14.08 ЮЗ 4
{5}
н/о н/о +13.2 +7.7 69 +12 +12 1008.0 1005.0
02 14.08 ЮЗ 5
{8}
н/о н/о +12.7 +8.0 73 +11 +11 1007.9 1004.9
03 14.08 Ю 6
{9}
н/о н/о +12.6 +7.9 73 +10 +10 1007.7 1004.7
04 14.08 Ю 7
{8}
н/о н/о +12.7 +8.4 75 +10 +10 1007.2 1004.2
05 14.08 Ю 11
{14}
н/о н/о +11.8 +9.5 86 +8 +8 1007.1 1004.1
06 14.08 Ю 10
{14}
н/о н/о +12.3 +9.1 81 +9 +9 1006.9 1003.9 +11.5 +13.3
07 14.08 Ю 9
{11}
н/о н/о +12.9 +9.4 79 +10 +10 1006.9 1003.9
08 14.08 ЮЗ 9
{13}
н/о н/о +11.6 +9.3 86 +8 +8 1007.5 1004.5
09 14.08 Ю 6
{13}
н/о н/о +12.0 +8.1 77 +9 +9 1007.7 1004.7
10 14.08 Ю 5
{8}
н/о н/о +13.2 +9.3 77 +11 +11 1007.8 1004.8
11 14.08 Ю 6
{7}
н/о н/о +13.7 +8.8 72 +12 +12 1007.8 1004.8
12 14.08 ЮЗ 5
{13}
н/о н/о +13.8 +9.1 73 +12 +12 1008.2 1005.2
13 14.08 ЮЗ 5
{10}
н/о н/о +14.2 +8.4 68 +13 +13 1008.3 1005.3
14 14.08 Ю 7
{8}
н/о н/о +14.1 +9.1 72 +12 +12 1008.2 1005.2
15 14.08 ЮЗ 5
{9}
н/о н/о +14.4 +7.9 65 +13 +13 1008.3 1005.3
16 14.08 ЮЗ 4
{7}
н/о н/о +14.1 +8.3 68 +13 +13 1008.3 1005.3
17 14.08 ЮЗ 5
{9}
н/о н/о +13.7 +8.6 71 +12 +12 1008.2 1005.2
18 14.08 ЮЗ 5
{10}
н/о н/о +14.1 +8.1 67 +12 +12 1008.2 1005.2 +11.4 +14.9
19 14.08 Ю 5
{6}
н/о н/о +13.9 +9.0 72 +12 +12 1008.3 1005.3
20 14.08 ЮЗ 5
{7}
н/о н/о +13.9 +8.1 68 +12 +12 1008.6 1005.6
21 14.08 Ю 5
{11}
н/о н/о +12.9 +7.8 71 +11 +11 1008.5 1005.5
22 14.08 Ю 7
{9}
н/о н/о +12.9 +8.8 76 +10 +10 1008.6 1005.6
23 14.08 Ю 8
{10}
н/о н/о +13.1 +9.7 80 +10 +10 1008.3 1005.3
00 15.08 ЮВ 8
{11}
н/о н/о +13.0 +9.6 80 +10 +10 1008.2 1005.2
01 15.08 Ю 8
{10}
н/о н/о +12.9 +9.2 78 +10 +10 1008.2 1005.2
02 15.08 ЮВ 7
{9}
н/о н/о +13.0 +8.9 76 +10 +10 1007.9 1004.9
03 15.08 ЮВ 7
{9}
н/о н/о +13.0 +8.7 75 +10 +10 1007.3 1004.3
04 15.08 ЮВ 5
{8}
н/о н/о +12.4 +8.7 78 +10 +10 1007.3 1004.3
05 15.08 ЮВ 6
{7}
н/о н/о +12.6 +8.3 75 +10 +10 1007.0 1004.0
06 15.08 ЮВ 6
{10}
н/о н/о +12.8 +7.9 72 +10 +10 1006.7 1003.7 +12.3 +14.3
07 15.08 В 6
{8}
н/о н/о +13.1 +7.3 68 +11 +11 1006.2 1003.2
08 15.08 В 6
{7}
н/о н/о +13.6 +7.4 66 +12 +12 1005.8 1002.8
09 15.08 ЮВ 4
{7}
н/о н/о +14.8 +6.9 59 +14 +14 1005.7 1002.7
10 15.08 ЮВ 3
{5}
н/о н/о +15.6 +6.4 54 +15 +15 1005.1 1002.1
11 15.08 Ю 2
{4}
н/о н/о +16.0 +6.5 53 +16 +16 1005.0 1002.0
12 15.08 Ю 1
{8}
н/о н/о +16.2 +6.4 52 +17 +17 1004.6 1001.6
13 15.08 штиль 0
{1}
н/о н/о +17.8 +6.4 47 +18 +18 1004.2 1001.2
14 15.08 ЮВ 1
{2}
н/о н/о +16.8 +7.5 54 +18 +18 1003.8 1000.8
15 15.08 ЮВ 2
{3}
н/о н/о +16.3 +7.0 54 +16 +16 1003.2 1000.2
16 15.08 Ю 2
{2}
н/о н/о +16.0 +9.0 63 +16 +16 1002.8 999.8
17 15.08 ЮВ 4
{4}
н/о н/о +16.7 +7.6 55 +16 +16 1002.0 999.0
18 15.08 ЮВ 5
{6}
н/о н/о +17.0 +7.6 54 +16 +16 1001.6 998.6 +12.8 +18.2
19 15.08 ЮЗ 10
{15}
н/о н/о +14.7 +12.6 87 +12 +12 1002.1 999.1
20 15.08 Ю 9
{12}
н/о н/о +14.1 +12.3 89 +11 +11 1002.3 999.3
21 15.08 Ю 10
{13}
н/о н/о +14.2 +12.9 92 +11 +11 1002.2 999.2
22 15.08 З 8
{12}
н/о н/о +13.3 +11.4 88 +10 +10 1003.0 1000.0
23 15.08 З 8
{11}
н/о н/о +13.7 +9.4 75 +11 +11 1003.4 1000.4
00 16.08 З 9
{15}
н/о н/о +13.5 +8.6 72 +11 +11 1004.0 1001.0
01 16.08 З 7
{10}
н/о н/о +13.4 +8.1 70 +11 +11 1004.8 1001.8
02 16.08 ЮЗ 6
{10}
н/о н/о +13.3 +7.1 66 +11 +11 1005.4 1002.4
03 16.08 ЮЗ 5
{9}
н/о н/о +13.5 +6.8 64 +12 +12 1005.5 1002.5
04 16.08 З 6
{9}
н/о н/о +13.4 +6.5 63 +11 +11 1005.8 1002.8
05 16.08 ЮЗ 6
{9}
н/о н/о +13.5 +7.3 66 +11 +11 1006.2 1003.2
06 16.08 ЮЗ 5
{10}
н/о н/о +13.5 +7.3 66 +12 +12 1006.4 1003.4 +13.0 +17.1
07 16.08 ЮЗ 5
{9}
н/о н/о +13.7 +6.8 63 +12 +12 1006.5 1003.5
08 16.08 Ю 8
{11}
н/о н/о +14.1 +8.3 68 +12 +12 1006.7 1003.7
09 16.08 Ю 8
{10}
н/о н/о +14.4 +8.6 68 +12 +12 1006.8 1003.8
10 16.08 Ю 9
{11}
н/о н/о +14.3 +7.8 65 +12 +12 1006.7 1003.7
11 16.08 Ю 10
{11}
н/о н/о +14.6 +7.7 63 +12 +12 1006.6 1003.6
12 16.08 Ю 10
{12}
н/о н/о +14.8 +9.2 69 +12 +12 1006.2 1003.2
13 16.08 Ю 10
{12}
н/о н/о +14.9 +9.3 69 +12 +12 1005.7 1002.7
14 16.08 Ю 10
{13}
н/о н/о +14.8 +10.0 73 +12 +12 1005.3 1002.3
15 16.08 Ю 10
{13}
н/о н/о +14.4 +10.6 78 +12 +12 1005.0 1002.0
16 16.08 Ю 11
{14}
н/о н/о +14.0 +10.4 79 +11 +11 1004.3 1001.3
17 16.08 Ю 11
{14}
н/о н/о +13.7 +10.7 82 +11 +11 1003.8 1000.8
18 16.08 ЮВ 10
{14}
н/о н/о +13.8 +10.0 78 +11 +11 1003.1 1000.1 +13.5 +14.9
19 16.08 ЮВ 11
{13}
н/о н/о +14.3 +9.3 72 +11 +11 1002.1 999.1
20 16.08 ЮВ 11
{13}
н/о н/о +14.7 +9.7 72 +12 +12 1001.8 998.8
21 16.08 ЮВ 11
{14}
н/о н/о +15.1 +10.1 72 +13 +13 1001.2 998.2
22 16.08 ЮВ 12
{14}
н/о н/о +15.2 +10.4 73 +13 +13 1000.4 997.4
23 16.08 ЮВ 12
{15}
н/о н/о +14.9 +10.1 73 +12 +12 999.4 996.4
00 17.08 ЮВ 11
{15}
н/о н/о +15.1 +10.3 73 +13 +13 999.0 996.0
01 17.08 ЮВ 11
{14}
н/о н/о +15.5 +10.1 70 +13 +13 997.7 994.7
02 17.08 ЮВ 11
{14}
н/о н/о +15.9 +9.8 67 +14 +14 996.7 993.7
03 17.08 ЮВ 11
{13}
н/о н/о +16.1 +9.8 66 +14 +14 996.1 993.1
04 17.08 ЮВ 9
{14}
н/о н/о +15.0 +11.0 77 +13 +13 995.6 992.6
05 17.08 ЮВ 9
{12}
н/о н/о +14.6 +10.8 78 +12 +12 994.6 991.6
06 17.08 В 11
{14}
н/о н/о +14.2 +10.8 80 +11 +11 993.6 990.6 +13.8 +16.1
07 17.08 В 11
{15}
н/о н/о +14.2 +11.4 83 +11 +11 992.7 989.7
08 17.08 В 10
{14}
н/о н/о +14.7 +11.3 80 +12 +12 992.2 989.2
09 17.08 ЮВ 9
{13}
н/о н/о +15.1 +11.1 77 +13 +13 991.8 988.8
10 17.08 ЮВ 7
{12}
н/о н/о +15.1 +11.9 81 +13 +13 991.7 988.7
11 17.08 ЮВ 8
{10}
н/о н/о +15.7 +12.6 82 +14 +14 991.4 988.5
12 17.08 ЮВ 8
{15}
н/о н/о +15.2 +13.1 87 +13 +13 991.2 988.2
13 17.08 ЮВ 7
{9}
н/о н/о +14.8 +13.5 92 +13 +13 991.2 988.2
14 17.08 Ю 10
{12}
н/о н/о +15.7 +14.6 93 +13 +13 991.0 988.1
15 17.08 Ю 14
{17}
н/о н/о +16.3 +13.2 82 +14 +14 991.0 988.1
16 17.08 Ю 13
{19}
н/о н/о +16.0 +13.1 83 +14 +14 991.8 988.9
17 17.08 Ю 13
{18}
н/о н/о +15.8 +13.1 84 +13 +13 992.1 989.2
18 17.08 Ю 14
{19}
н/о н/о +15.7 +13.2 85 +13 +13 992.6 989.6 +13.9 +16.4
19 17.08 Ю 11
{16}
н/о н/о +15.5 +13.2 86 +13 +13 992.9 989.9
20 17.08 Ю 11
{14}
н/о н/о +15.2 +12.9 86 +13 +13 993.2 990.2
21 17.08 ЮЗ 12
{14}
н/о н/о +14.8 +11.8 82 +12 +12 994.3 991.3
22 17.08 ЮЗ 9
{14}
н/о н/о +14.4 +11.2 81 +12 +12 995.7 992.7
23 17.08 Ю 10
{13}
н/о н/о +14.5 +10.3 76 +12 +12 996.4 993.4
00 18.08 Ю 11
{16}
н/о н/о +14.6 +10.8 78 +12 +12 996.3 993.3
01 18.08 ЮВ 13
{20}
н/о н/о +13.5 +10.7 83 +10 +10 995.8 992.8
02 18.08 ЮВ 11
{15}
н/о н/о +13.7 +10.7 82 +11 +11 996.1 993.1
03 18.08 ЮВ 9
{15}
н/о н/о +13.9 +10.9 82 +11 +11 995.9 992.9
04 18.08 Ю 14
{17}
н/о н/о +14.6 +10.0 74 +11 +11 995.8 992.8
05 18.08 ЮВ 12
{15}
н/о н/о +14.6 +10.6 77 +12 +12 995.6 992.6
06 18.08 ЮВ 11
{20}
н/о н/о +14.7 +10.7 77 +12 +12 995.5 992.5 +13.1 +15.8
07 18.08 ЮВ 11
{15}
н/о н/о +14.4 +11.2 81 +12 +12 995.3 992.3
08 18.08 Ю 13
{17}
н/о н/о +15.4 +10.8 74 +13 +13 995.5 992.5
09 18.08 Ю 14
{18}
н/о н/о +15.8 +10.4 70 +13 +13 995.3 992.3
10 18.08 ЮВ 14
{20}
н/о н/о +15.6 +9.1 65 +13 +13 995.4 992.4
11 18.08 ЮВ 14
{23}
н/о н/о +14.1 +10.3 78 +11 +11 995.7 992.7
12 18.08 ЮВ 14
{23}
н/о н/о +14.5 +10.1 75 +11 +11 995.6 992.6
13 18.08 Ю 12
{16}
н/о н/о +13.8 +11.3 85 +11 +11 996.4 993.4
14 18.08 ЮВ 11
{16}
н/о н/о +14.6 +10.6 77 +12 +12 996.2 993.2
15 18.08 Ю 11
{17}
н/о н/о +13.9 +11.3 84 +11 +11 996.4 993.4
16 18.08 ЮВ 8
{12}
н/о н/о +15.2 +10.0 71 +13 +13 996.0 993.0
17 18.08 ЮВ 10
{11}
н/о н/о +15.9 +11.3 74 +14 +14 995.6 992.6
18 18.08 ЮВ 9
{17}
н/о н/о +15.7 +10.0 69 +14 +14 995.3 992.3 +13.2 +16.1
19 18.08 Ю 8
{11}
н/о н/о +15.8 +11.0 73 +14 +14 995.5 992.5
20 18.08 Ю 9
{12}
н/о н/о +15.9 +11.3 74 +14 +14 995.5 992.5
21 18.08 Ю 10
{12}
н/о н/о +15.9 +10.5 70 +14 +14 995.5 992.5
22 18.08 ЮВ 9
{12}
н/о н/о +15.9 +10.5 70 +14 +14 995.4 992.4
23 18.08 ЮВ 10
{14}
н/о н/о +15.8 +10.6 71 +14 +14 995.2 992.2
00 19.08 ЮВ 11
{14}
н/о н/о +15.7 +9.8 68 +13 +13 994.7 991.7
01 19.08 ЮВ 10
{13}
н/о н/о +15.6 +9.9 69 +13 +13 994.1 991.1
02 19.08 ЮВ 10
{14}
н/о н/о +15.4 +9.8 69 +13 +13 993.5 990.5
03 19.08 ЮВ 13
{16}
н/о н/о +14.8 +10.2 74 +12 +12 993.2 990.2
04 19.08 ЮВ 14
{17}
н/о н/о +14.6 +10.0 74 +11 +11 992.8 989.8
05 19.08 ЮВ 13
{17}
н/о н/о +13.6 +10.8 83 +10 +10 992.8 989.8
06 19.08 ЮВ 13
{17}
н/о н/о +13.8 +10.8 82 +10 +10 992.9 989.9 +13.4 +16.1
07 19.08 ЮВ 13
{16}
н/о н/о +13.6 +11.3 86 +10 +10 993.3 990.3
08 19.08 ЮВ 12
{15}
н/о н/о +13.9 +11.6 86 +11 +11 993.9 990.9
09 19.08 ЮВ 8
{15}
н/о н/о +14.3 +12.2 87 +12 +12 995.0 992.0
10 19.08 Ю 10
{12}
н/о н/о +13.7 +10.3 80 +11 +11 995.8 992.8
11 19.08 Ю 8
{12}
н/о н/о +14.7 +12.0 84 +12 +12 996.4 993.4
12 19.08 Ю 10
{16}
н/о н/о +15.0 +11.8 81 +13 +13 997.4 994.4
13 19.08 ЮЗ 11
{14}
н/о н/о +15.3 +11.9 80 +13 +13 998.4 995.4
14 19.08 ЮЗ 10
{14}
н/о н/о +15.3 +12.1 81 +13 +13 999.0 996.0
15 19.08 Ю 11
{14}
н/о н/о +15.5 +12.1 80 +13 +13 999.4 996.4
16 19.08 Ю 12
{16}
н/о н/о +14.7 +12.2 85 +12 +12 999.6 996.6
17 19.08 ЮЗ 12
{17}
н/о н/о +13.1 +11.3 89 +9 +9 1000.3 997.3
18 19.08 ЮЗ 13
{17}
н/о н/о +14.6 +11.8 83 +12 +12 1000.4 997.4 +13.1 +15.6
19 19.08 ЮЗ 11
{14}
н/о н/о +14.7 +12.0 84 +12 +12 1000.9 997.9
20 19.08 ЮЗ 12
{15}
н/о н/о +14.6 +11.6 82 +12 +12 1001.7 998.7
21 19.08 ЮЗ 11
{15}
н/о н/о +14.4 +11.9 85 +12 +12 1002.3 999.3
22 19.08 ЮЗ 10
{13}
н/о н/о +14.5 +11.8 84 +12 +12 1002.6 999.6
23 19.08 ЮЗ 9
{13}
н/о н/о +14.5 +12.4 87 +12 +12 1003.0 1000.0
00 20.08 ЮЗ 9
{15}
н/о н/о +14.6 +12.3 86 +12 +12 1003.4 1000.4
01 20.08 ЮЗ 9
{13}
н/о н/о +13.7 +12.3 91 +11 +11 1003.7 1000.7
02 20.08 ЮЗ 8
{11}
н/о н/о +14.2 +12.2 88 +12 +12 1004.1 1001.1
03 20.08 ЮЗ 7
{10}
н/о н/о +13.8 +11.9 88 +11 +11 1004.5 1001.5
04 20.08 ЮЗ 6
{8}
н/о н/о +14.0 +12.1 88 +12 +12 1004.9 1001.9
05 20.08 ЮЗ 7
{9}
н/о н/о +13.8 +12.2 90 +11 +11 1005.3 1002.3
06 20.08 ЮЗ 6
{13}
н/о н/о +14.0 +11.5 85 +12 +12 1005.7 1002.7 +13.4 +14.8
07 20.08 ЮЗ 6
{7}
н/о н/о +13.7 +11.4 86 +12 +12 1006.5 1003.5
08 20.08 З 5
{7}
н/о н/о +14.3 +10.5 78 +13 +13 1007.2 1004.2
09 20.08 З 6
{9}
н/о н/о +14.0 +10.0 77 +12 +12 1008.0 1005.0
10 20.08 З 6
{8}
н/о н/о +13.8 +10.2 79 +12 +12 1008.7 1005.7
11 20.08 ЮЗ 7
{9}
н/о н/о +14.0 +9.3 73 +12 +12 1009.4 1006.4
12 20.08 ЮЗ 8
{10}
н/о н/о +14.0 +9.3 73 +12 +12 1010.1 1007.1
13 20.08 ЮЗ 8
{10}
н/о н/о +14.1 +9.9 76 +12 +12 1011.0 1008.0
14 20.08 З 9
{10}
н/о н/о +13.3 +9.9 80 +10 +10 1011.5 1008.5
15 20.08 З 8
{11}
н/о н/о +13.7 +10.3 80 +11 +11 1012.3 1009.3
17 20.08 З 7 н/о н/о +13.7 +9.7 77 +11 +11 1013.8 1010.8
18 20.08 З 7
{11}
н/о н/о +13.6 +9.5 76 +11 +11 1014.3 1011.3 +13.3 +14.4
19 20.08 З 7
{10}
н/о н/о +13.3 +9.6 78 +11 +11 1015.0 1012.0

 

Местоположение метеостанции Маяк Ytteroyane (Норвегия): широта 61.57 долгота 4.68 высота над уровнем моря 26 м.

В архиве по умолчанию представлена погода на Маяке Ytteroyane за последнюю неделю. Архивные данные за месяц целиком и за предыдущие месяцы, начиная с января 2011 года, Вы можете получить, выбрав интересующий диапазон дат из раскрывающегося списка и нажав кнопку "Ввод!".


*Определитесь, кто Вы:
робот инопланетянин человек

Внимание! Время в таблицах - всемирное. Для получения местного времени необходимо прибавить поправку, которая равна 1 ч.

Смотрите также архив погоды в соседних городах и на ближайших метеорологических станциях:

Погода в Флоро аэропорту (Норвегия) (19 км)
Погода в Фурунесете (Норвегия) (37 км)
Погода на Маяке Krakenes (Норвегия) (54 км)
Погода во Флурё аэропорту (Норвегия) (61 км)
Погода во Флурё (Норвегия) (67 км)
Погода в Такле (Норвегия) (71 км)
Погода в Фиске (Норвегия) (76 км)
Погода в Сандан аэропорту (Норвегия) (80 км)
Погода в Берген аэропорту (Норвегия) (85 км)
Погода в Федье (Норвегия) (88 км)

Пояснения к столбцам:

Ветер - указаны скорость ветра в м/с - средняя за 10 мин, порывы в срок и между сроками (в фигурных скобках) и направление, откуда дует ветер: С - северный, СВ - северо-восточный, В - восточный, ЮВ - юго-восточный, Ю - южный, ЮЗ - юго-западный, З - западный, СЗ - северо-западный.
Видимость - горизонтальная дальность видимости в метрах или километрах. При видимости от 1 до 10 км при отсутствии осадков обычно наблюдается дымка, при ухудшении видимости до 1 км и менее - туман. В сухую погоду видимость может ухудшаться дымом, пылью или мглою.
Явления - указаны атмосферные явления, наблюдавшиеся в срок или в последний час перед сроком; фигурными скобками обозначены явления, наблюдавшиеся между сроками (за 1-3 часа до срока); квадратными скобками обозначены град или гололедные отложения с указанием их диаметра в мм.
Облачность - указаны через наклонную черту общая и нижняя облачность в баллах и высота нижней границы облаков в метрах; квадратными скобками обозначены формы облаков: Ci - перистые, Cs - перисто-слоистые, Cc - перисто-кучевые, Ac - высококучевые, As - высокослоистые, Sc - слоисто-кучевые, Ns - слоисто-дождевые, Cu - кучевые, Cb - кучево-дождевые. Подробнее классификацию облаков см. в Атласе облаков (PDF).
T - Температура воздуха - температура, измеренная на высоте 2 м над землей.
Td - Температура точки росы - температура, при понижении до которой содержащийся в воздухе водяной пар достигнет насыщения.
f - Относительная влажность воздуха - влажноcть воздуха, измеренная на высоте 2 м над землей.
Te - Эффективная температура - температура, которую ощущает одетый по сезону человек в тени. Характеристика душности погоды. При расчете учитывается влияние влажности воздуха и скорости ветра на теплоощущения человека.
Tes - Эффективная температура на солнце - температура, которую ощущает человек, с поправкой на солнечный нагрев. Характеристика знойности погоды. Зависит от высоты солнца над горизонтом, облачности и скорости ветра. Ночью, в пасмурную погоду, а также при ветре 12 м/с и более поправка равна нулю.
P - Атмосферное давление - приведенное к уровню моря атмосферное давление.
Po - Атмосферное давление - измеренное на уровне метеостанции атмосферное давление.
Tmin - Минимальная температура - минимум температуры воздуха на высоте 2 м над землей.
Tmax - Максимальная температура - максимум температуры воздуха на высоте 2 м над землей.
R - Количество осадков - Количество выпавших осадков за период времени, мм. При наведении курсора мыши на число - период времени, за который выпало указанное количество осадков.
R24 - Количество осадков - Количество выпавших осадков за 24 часа, мм.
S - Снежный покров - Высота снежного покрова, см. При наведении курсора мыши на число - состояние снежного покрова и степень покрытия местности в баллах.